Location: Atherton
(17.2661°S, 145.4859°E)
Time: 02:29:18
(UTC+10:00)

DIWATA 2B (PO-101) - Visible Passes

Search period start: 19 January 2026 00:00
Search period end: 29 January 2026 00:00
Orbit: 563 x 573 km, 98.1° (Epoch: 17 January)

Date Brightness Start Highest point End Pass type
(mag) Time Alt. Az. Time Alt. Az. Time Alt. Az.
20 Jan ? 05:34:29 10° ESE 05:36:44 14° E 05:38:59 10° NE visible
21 Jan ? 05:35:35 10° ESE 05:37:55 15° E 05:40:15 10° NE visible
22 Jan ? 05:36:40 10° ESE 05:39:06 15° E 05:41:31 10° NE visible
23 Jan ? 05:37:45 10° ESE 05:40:16 16° E 05:42:46 10° NE visible
